| time (UTC) | temp F | wind direction | speed MPH | gust MPH | rain 1hr in | rain 24hr in | rain mn in | humidity % | barometer mb |
| 20260903015759 | 72 | 329 | 1.0 | 3.0 | 0.00 | 0.00 | 0.00 | 87 | 1015.0 |
| 20260903015259 | 72 | 329 | 1.0 | 2.0 | 0.00 | 0.00 | 0.00 | 87 | 1015.0 |
| 20260903014758 | 72 | 329 | 1.0 | 2.0 | 0.00 | 0.00 | 0.00 | 87 | 1015.0 |
| 20260903014259 | 73 | 329 | 1.0 | 2.0 | 0.00 | 0.00 | 0.00 | 88 | 1015.1 |
| 20260903013759 | 72 | 329 | 1.0 | 2.0 | 0.00 | 0.00 | 0.00 | 88 | 1015.0 |
| 20260903013259 | 72 | 329 | 1.0 | 2.0 | 0.00 | 0.00 | 0.00 | 87 | 1015.0 |
| 20260903012759 | 72 | 329 | 1.0 | 2.0 | 0.00 | 0.00 | 0.00 | 86 | 1015.2 |
| 20260903012259 | 72 | 329 | 1.0 | 3.0 | 0.00 | 0.00 | 0.00 | 86 | 1015.1 |
| 20260903011759 | 73 | 346 | 1.0 | 2.0 | 0.00 | 0.00 | 0.00 | 87 | 1015.3 |
| 20260903011259 | 73 | 346 | 1.0 | 2.0 | 0.00 | 0.00 | 0.00 | 87 | 1015.2 |
| 20260903010759 | 73 | 346 | 2.0 | 2.0 | 0.00 | 0.00 | 0.00 | 87 | 1015.1 |
| 20260903010259 | 73 | 346 | 3.0 | 4.0 | 0.00 | 0.00 | 0.00 | 87 | 1015.1 |
| 20260903005759 | 72 | 346 | 3.0 | 4.0 | 0.00 | 0.00 | 0.00 | 87 | 1015.3 |
| 20260903005259 | 72 | 355 | 4.0 | 5.0 | 0.00 | 0.00 | 0.00 | 86 | 1015.2 |
| 20260903004759 | 72 | 12 | 2.0 | 5.0 | 0.00 | 0.00 | 0.00 | 85 | 1015.2 |
| 20260903004259 | 72 | 347 | 0.0 | 2.0 | 0.00 | 0.00 | 0.00 | 84 | 1015.3 |
| 20260903003759 | 73 | 261 | 0.0 | 1.0 | 0.00 | 0.00 | 0.00 | 84 | 1015.2 |
| 20260903003259 | 73 | 261 | 0.0 | 0.0 | 0.00 | 0.00 | 0.00 | 84 | 1015.2 |
| 20260903002759 | 73 | 261 | 2.0 | 2.0 | 0.00 | 0.00 | 0.00 | 84 | 1015.1 |
| 20260903002259 | 74 | 261 | 3.0 | 3.0 | 0.00 | 0.00 | 0.00 | 84 | 1015.0 |
| 20260903001759 | 74 | 279 | 2.0 | 4.0 | 0.00 | 0.00 | 0.00 | 83 | 1015.1 |
| 20260903001259 | 75 | 292 | 1.0 | 3.0 | 0.00 | 0.00 | 0.00 | 83 | 1015.1 |
| 20260903000759 | 75 | 292 | 1.0 | 2.0 | 0.00 | 0.00 | 0.00 | 84 | 1015.0 |
| 20260903000259 | 75 | 292 | 1.0 | 2.0 | 0.00 | 0.00 | 0.00 | 85 | 1015.0 |
| 20260902235759 | 75 | 293 | 1.0 | 2.0 | 0.00 | 0.00 | 0.00 | 84 | 1015.1 |
| 20260902235259 | 75 | 293 | 0.0 | 1.0 | 0.00 | 0.00 | 0.00 | 84 | 1015.0 |
| 20260902234759 | 75 | 293 | 0.0 | 0.0 | 0.00 | 0.00 | 0.00 | 83 | 1015.1 |
| 20260902234259 | 74 | 293 | 1.0 | 1.0 | 0.00 | 0.00 | 0.00 | 83 | 1015.0 |
| 20260902233759 | 74 | 293 | 2.0 | 2.0 | 0.00 | 0.00 | 0.00 | 82 | 1015.0 |
| 20260902233259 | 74 | 293 | 2.0 | 2.0 | 0.00 | 0.00 | 0.00 | 81 | 1015.0 |
| 20260902232759 | 75 | 293 | 2.0 | 3.0 | 0.00 | 0.00 | 0.00 | 81 | 1015.1 |
| 20260902232259 | 75 | 293 | 2.0 | 3.0 | 0.00 | 0.00 | 0.00 | 81 | 1015.1 |
| 20260902231759 | 75 | 293 | 2.0 | 3.0 | 0.00 | 0.00 | 0.00 | 81 | 1015.1 |
| 20260902231259 | 76 | 293 | 2.0 | 3.0 | 0.00 | 0.00 | 0.00 | 81 | 1015.0 |
| 20260902230759 | 76 | 293 | 1.0 | 2.0 | 0.00 | 0.00 | 0.00 | 81 | 1015.0 |
| 20260902230259 | 76 | 293 | 0.0 | 0.0 | 0.00 | 0.00 | 0.00 | 81 | 1015.1 |
| 20260902225759 | 76 | 293 | 0.0 | 1.0 | 0.00 | 0.00 | 0.00 | 81 | 1015.1 |
| 20260902225259 | 76 | 293 | 1.0 | 0.0 | 0.00 | 0.00 | 0.00 | 80 | 1015.1 |
| 20260902224759 | 76 | 293 | 1.0 | 2.0 | 0.00 | 0.00 | 0.00 | 80 | 1015.2 |
| 20260902224259 | 76 | 293 | 1.0 | 2.0 | 0.00 | 0.00 | 0.00 | 80 | 1015.1 |
| 20260902223759 | 76 | 293 | 1.0 | 2.0 | 0.00 | 0.00 | 0.00 | 81 | 1015.1 |
| 20260902223259 | 76 | 293 | 2.0 | 3.0 | 0.00 | 0.00 | 0.00 | 81 | 1015.1 |
| 20260902222759 | 75 | 293 | 2.0 | 3.0 | 0.00 | 0.00 | 0.00 | 81 | 1015.1 |
| 20260902222259 | 75 | 293 | 2.0 | 2.0 | 0.00 | 0.00 | 0.00 | 80 | 1015.1 |
| 20260902221759 | 75 | 293 | 2.0 | 3.0 | 0.00 | 0.00 | 0.00 | 80 | 1015.1 |
| 20260902221259 | 75 | 287 | 2.0 | 3.0 | 0.00 | 0.00 | 0.00 | 80 | 1015.1 |
| 20260902220759 | 75 | 273 | 2.0 | 2.0 | 0.00 | 0.00 | 0.00 | 80 | 1015.0 |
| 20260902220259 | 75 | 273 | 2.0 | 3.0 | 0.00 | 0.00 | 0.00 | 81 | 1015.0 |
| 20260902215759 | 75 | 273 | 3.0 | 4.0 | 0.00 | 0.00 | 0.00 | 80 | 1015.0 |
| 20260902215259 | 75 | 271 | 3.0 | 4.0 | 0.00 | 0.00 | 0.00 | 80 | 1015.0 |
| 20260902214759 | 74 | 253 | 3.0 | 5.0 | 0.00 | 0.00 | 0.00 | 80 | 1015.0 |
| 20260902214259 | 75 | 289 | 3.0 | 3.0 | 0.00 | 0.00 | 0.00 | 80 | 1014.9 |
| 20260902213759 | 75 | 290 | 4.0 | 4.0 | 0.00 | 0.00 | 0.00 | 80 | 1014.9 |
| 20260902213259 | 75 | 290 | 3.0 | 6.0 | 0.00 | 0.00 | 0.00 | 80 | 1014.9 |
| 20260902212759 | 75 | 267 | 3.0 | 4.0 | 0.00 | 0.00 | 0.00 | 80 | 1015.0 |
| 20260902212259 | 75 | 255 | 3.0 | 4.0 | 0.00 | 0.00 | 0.00 | 81 | 1014.9 |
| 20260902211759 | 75 | 298 | 2.0 | 3.0 | 0.00 | 0.00 | 0.00 | 81 | 1014.9 |
| 20260902211259 | 75 | 325 | 1.0 | 3.0 | 0.00 | 0.00 | 0.00 | 81 | 1014.8 |
| 20260902210759 | 75 | 5 | 1.0 | 2.0 | 0.00 | 0.00 | 0.00 | 81 | 1014.8 |
| 20260902210313 | 76 | 5 | 2.0 | 4.0 | 0.00 | 0.00 | 0.00 | 80 | 1014.8 |
| 20260902205759 | 76 | 342 | 2.0 | 4.0 | 0.00 | 0.00 | 0.00 | 80 | 1014.7 |
| 20260902205259 | 77 | 297 | 2.0 | 3.0 | 0.00 | 0.00 | 0.00 | 79 | 1014.7 |
| 20260902204759 | 77 | 297 | 2.0 | 4.0 | 0.00 | 0.00 | 0.00 | 79 | 1014.7 |
| 20260902204259 | 77 | 36 | 3.0 | 6.0 | 0.00 | 0.00 | 0.00 | 80 | 1014.7 |
| 20260902203759 | 77 | 35 | 3.0 | 6.0 | 0.00 | 0.00 | 0.00 | 81 | 1014.8 |
| 20260902203259 | 76 | 5 | 3.0 | 5.0 | 0.00 | 0.00 | 0.00 | 80 | 1014.8 |
| 20260902202759 | 76 | 300 | 4.0 | 4.0 | 0.00 | 0.00 | 0.00 | 80 | 1014.6 |
| 20260902202259 | 76 | 269 | 3.0 | 7.0 | 0.00 | 0.00 | 0.00 | 81 | 1014.7 |
| 20260902201759 | 77 | 300 | 2.0 | 4.0 | 0.00 | 0.00 | 0.00 | 80 | 1014.6 |
| 20260902201259 | 77 | 227 | 1.0 | 4.0 | 0.00 | 0.00 | 0.00 | 81 | 1014.4 |
| 20260902200759 | 77 | 36 | 1.0 | 2.0 | 0.00 | 0.00 | 0.00 | 81 | 1014.5 |
| 20260902200259 | 77 | 26 | 2.0 | 4.0 | 0.00 | 0.00 | 0.00 | 81 | 1014.5 |
| 20260902195759 | 78 | 15 | 3.0 | 4.0 | 0.00 | 0.00 | 0.00 | 80 | 1014.6 |
| 20260902195259 | 78 | 82 | 4.0 | 5.0 | 0.00 | 0.00 | 0.00 | 80 | 1014.5 |
| 20260902194759 | 78 | 83 | 4.0 | 5.0 | 0.00 | 0.00 | 0.00 | 79 | 1014.6 |
| 20260902194259 | 78 | 79 | 4.0 | 5.0 | 0.00 | 0.00 | 0.00 | 78 | 1014.6 |
| 20260902193759 | 79 | 84 | 4.0 | 5.0 | 0.00 | 0.00 | 0.00 | 76 | 1014.6 |
| 20260902193259 | 79 | 169 | 4.0 | 7.0 | 0.00 | 0.00 | 0.00 | 77 | 1014.5 |
| 20260902192759 | 79 | 154 | 4.0 | 6.0 | 0.00 | 0.00 | 0.00 | 77 | 1014.7 |
| 20260902192259 | 80 | 140 | 4.0 | 5.0 | 0.00 | 0.00 | 0.00 | 76 | 1014.6 |
| 20260902191759 | 80 | 117 | 2.0 | 6.0 | 0.00 | 0.00 | 0.00 | 75 | 1014.7 |
| 20260902191259 | 79 | 109 | 0.0 | 4.0 | 0.00 | 0.00 | 0.00 | 74 | 1014.7 |
| 20260902190759 | 79 | 113 | 0.0 | 0.0 | 0.00 | 0.00 | 0.00 | 73 | 1014.6 |
| 20260902190259 | 79 | 105 | 0.0 | 0.0 | 0.00 | 0.00 | 0.00 | 73 | 1014.6 |
| 20260902185759 | 80 | 73 | 0.0 | 0.0 | 0.00 | 0.00 | 0.00 | 73 | 1014.6 |
| 20260902185259 | 80 | 47 | 0.0 | 0.0 | 0.00 | 0.00 | 0.00 | 72 | 1014.6 |
| 20260902184759 | 81 | 46 | 0.0 | 0.0 | 0.00 | 0.00 | 0.00 | 72 | 1014.4 |
| 20260902184259 | 81 | 45 | 0.0 | 0.0 | 0.00 | 0.00 | 0.00 | 71 | 1014.4 |
| 20260902183759 | 82 | 46 | 0.0 | 0.0 | 0.00 | 0.00 | 0.00 | 69 | 1014.4 |
| 20260902183301 | 82 | 46 | 1.0 | 0.0 | 0.00 | 0.00 | 0.00 | 68 | 1014.4 |
| 20260902182759 | 82 | 46 | 2.0 | 3.0 | 0.00 | 0.00 | 0.00 | 68 | 1014.3 |
| 20260902182259 | 83 | 45 | 2.0 | 4.0 | 0.00 | 0.00 | 0.00 | 66 | 1014.3 |
| 20260902181759 | 83 | 22 | 1.0 | 2.0 | 0.00 | 0.00 | 0.00 | 63 | 1014.2 |
| 20260902181300 | 83 | 20 | 2.0 | 2.0 | 0.00 | 0.00 | 0.00 | 61 | 1014.2 |
| 20260902180759 | 83 | 20 | 2.0 | 3.0 | 0.00 | 0.00 | 0.00 | 60 | 1014.2 |
| 20260902180259 | 83 | 17 | 2.0 | 3.0 | 0.00 | 0.00 | 0.00 | 59 | 1014.0 |
| 20260902175759 | 83 | 355 | 3.0 | 5.0 | 0.00 | 0.00 | 0.00 | 59 | 1014.0 |
| 20260902175259 | 84 | 129 | 3.0 | 7.0 | 0.00 | 0.00 | 0.00 | 58 | 1013.9 |
| 20260902174759 | 84 | 36 | 4.0 | 5.0 | 0.00 | 0.00 | 0.00 | 58 | 1013.8 |
| 20260902174259 | 84 | 49 | 4.0 | 6.0 | 0.00 | 0.00 | 0.00 | 57 | 1013.8 |
| 20260902173759 | 85 | 105 | 3.0 | 6.0 | 0.00 | 0.00 | 0.00 | 56 | 1013.8 |
| 20260902173259 | 87 | 347 | 3.0 | 3.0 | 0.00 | 0.00 | 0.00 | 54 | 1013.7 |
| 20260902172759 | 86 | 268 | 3.0 | 7.0 | 0.00 | 0.00 | 0.00 | 51 | 1013.7 |
| 20260902172259 | 86 | 41 | 2.0 | 6.0 | 0.00 | 0.00 | 0.00 | 52 | 1013.8 |
| 20260902171759 | 86 | 146 | 2.0 | 5.0 | 0.00 | 0.00 | 0.00 | 54 | 1013.8 |
| 20260902171259 | 86 | 275 | 2.0 | 4.0 | 0.00 | 0.00 | 0.00 | 54 | 1013.9 |
| 20260902170759 | 86 | 322 | 2.0 | 5.0 | 0.00 | 0.00 | 0.00 | 54 | 1013.8 |
| 20260902170300 | 87 | 303 | 5.0 | 8.0 | 0.00 | 0.00 | 0.00 | 54 | 1013.9 |
| 20260902165759 | 87 | 306 | 6.0 | 9.0 | 0.00 | 0.00 | 0.00 | 53 | 1013.8 |
| 20260902165259 | 87 | 251 | 5.0 | 11.0 | 0.00 | 0.00 | 0.00 | 53 | 1013.7 |
| 20260902164800 | 87 | 288 | 5.0 | 10.0 | 0.00 | 0.00 | 0.00 | 52 | 1013.6 |
| 20260902164300 | 88 | 299 | 5.0 | 8.0 | 0.00 | 0.00 | 0.00 | 51 | 1013.6 |
| 20260902163800 | 88 | 290 | 4.0 | 8.0 | 0.00 | 0.00 | 0.00 | 51 | 1013.6 |
| 20260902163300 | 88 | 296 | 5.0 | 8.0 | 0.00 | 0.00 | 0.00 | 50 | 1013.6 |
| 20260902162800 | 88 | 284 | 5.0 | 11.0 | 0.00 | 0.00 | 0.00 | 49 | 1013.5 |
| 20260902162300 | 88 | 292 | 5.0 | 9.0 | 0.00 | 0.00 | 0.00 | 48 | 1013.4 |
| 20260902161800 | 89 | 296 | 5.0 | 7.0 | 0.00 | 0.00 | 0.00 | 48 | 1013.4 |
| 20260902161259 | 89 | 287 | 7.0 | 9.0 | 0.00 | 0.00 | 0.00 | 48 | 1013.4 |
| 20260902160800 | 89 | 269 | 8.0 | 13.0 | 0.00 | 0.00 | 0.00 | 47 | 1013.4 |
| 20260902160300 | 89 | 269 | 9.0 | 14.0 | 0.00 | 0.00 | 0.00 | 47 | 1013.3 |
| 20260902155800 | 90 | 284 | 10.0 | 16.0 | 0.00 | 0.00 | 0.00 | 47 | 1013.3 |
| 20260902155300 | 90 | 285 | 10.0 | 15.0 | 0.00 | 0.00 | 0.00 | 46 | 1013.4 |
| 20260902154800 | 90 | 290 | 10.0 | 16.0 | 0.00 | 0.00 | 0.00 | 53 | 1013.4 |
| 20260902154300 | 90 | 240 | 10.0 | 15.0 | 0.00 | 0.00 | 0.00 | 52 | 1013.3 |
| 20260902153800 | 90 | 252 | 10.0 | 13.0 | 0.00 | 0.00 | 0.00 | 53 | 1013.4 |
| 20260902153300 | 90 | 246 | 10.0 | 15.0 | 0.00 | 0.00 | 0.00 | 52 | 1013.3 |
| 20260902152800 | 91 | 239 | 9.0 | 14.0 | 0.00 | 0.00 | 0.00 | 51 | 1013.4 |
| 20260902152300 | 91 | 242 | 10.0 | 13.0 | 0.00 | 0.00 | 0.00 | 50 | 1013.4 |
| 20260902151800 | 91 | 267 | 11.0 | 16.0 | 0.00 | 0.00 | 0.00 | 48 | 1013.3 |
| 20260902151300 | 91 | 261 | 10.0 | 17.0 | 0.00 | 0.00 | 0.00 | 48 | 1013.3 |
| 20260902150800 | 91 | 261 | 10.0 | 15.0 | 0.00 | 0.00 | 0.00 | 47 | 1013.3 |
| 20260902150300 | 91 | 285 | 10.0 | 17.0 | 0.00 | 0.00 | 0.00 | 48 | 1013.3 |
| 20260902145800 | 91 | 267 | 11.0 | 17.0 | 0.00 | 0.00 | 0.00 | 49 | 1013.4 |
| 20260902145300 | 91 | 273 | 12.0 | 16.0 | 0.00 | 0.00 | 0.00 | 49 | 1013.5 |
| 20260902144800 | 91 | 269 | 13.0 | 17.0 | 0.00 | 0.00 | 0.00 | 49 | 1013.5 |
| 20260902144300 | 91 | 266 | 11.0 | 18.0 | 0.00 | 0.00 | 0.00 | 49 | 1013.4 |
| 20260902143800 | 92 | 273 | 11.0 | 16.0 | 0.00 | 0.00 | 0.00 | 49 | 1013.5 |
| 20260902143300 | 92 | 271 | 12.0 | 19.0 | 0.00 | 0.00 | 0.00 | 50 | 1013.5 |
| 20260902142800 | 92 | 266 | 13.0 | 17.0 | 0.00 | 0.00 | 0.00 | 48 | 1013.6 |
| 20260902142300 | 92 | 264 | 13.0 | 19.0 | 0.00 | 0.00 | 0.00 | 47 | 1013.6 |
| 20260902141800 | 92 | 285 | 13.0 | 20.0 | 0.00 | 0.00 | 0.00 | 45 | 1013.7 |
| 20260902141300 | 92 | 279 | 14.0 | 20.0 | 0.00 | 0.00 | 0.00 | 44 | 1013.8 |
| 20260902140800 | 92 | 259 | 13.0 | 20.0 | 0.00 | 0.00 | 0.00 | 43 | 1013.7 |
| 20260902140300 | 93 | 290 | 12.0 | 20.0 | 0.00 | 0.00 | 0.00 | 44 | 1013.8 |
| 20260902135800 | 92 | 264 | 12.0 | 18.0 | 0.00 | 0.00 | 0.00 | 43 | 1013.8 |
| 20260902135300 | 92 | 268 | 13.0 | 18.0 | 0.00 | 0.00 | 0.00 | 46 | 1013.9 |
| 20260902134800 | 92 | 265 | 13.0 | 20.0 | 0.00 | 0.00 | 0.00 | 46 | 1013.9 |
| 20260902134300 | 92 | 284 | 12.0 | 17.0 | 0.00 | 0.00 | 0.00 | 47 | 1013.9 |
| 20260902133800 | 92 | 287 | 13.0 | 17.0 | 0.00 | 0.00 | 0.00 | 48 | 1013.9 |
| 20260902133300 | 92 | 254 | 13.0 | 19.0 | 0.00 | 0.00 | 0.00 | 48 | 1014.0 |
| 20260902132800 | 93 | 293 | 12.0 | 19.0 | 0.00 | 0.00 | 0.00 | 49 | 1014.1 |
| 20260902132300 | 93 | 285 | 11.0 | 19.0 | 0.00 | 0.00 | 0.00 | 48 | 1014.0 |
| 20260902131800 | 93 | 285 | 11.0 | 17.0 | 0.00 | 0.00 | 0.00 | 48 | 1014.1 |
| 20260902131300 | 93 | 284 | 11.0 | 17.0 | 0.00 | 0.00 | 0.00 | 48 | 1014.1 |
| 20260902130800 | 93 | 267 | 11.0 | 18.0 | 0.00 | 0.00 | 0.00 | 46 | 1014.2 |
| 20260902130300 | 94 | 248 | 11.0 | 15.0 | 0.00 | 0.00 | 0.00 | 44 | 1014.2 |
| 20260902125800 | 94 | 233 | 10.0 | 18.0 | 0.00 | 0.00 | 0.00 | 45 | 1014.3 |
| 20260902125300 | 94 | 257 | 9.0 | 15.0 | 0.00 | 0.00 | 0.00 | 44 | 1014.2 |
| 20260902124800 | 94 | 267 | 8.0 | 10.0 | 0.00 | 0.00 | 0.00 | 43 | 1014.4 |
| 20260902124300 | 94 | 250 | 8.0 | 14.0 | 0.00 | 0.00 | 0.00 | 41 | 1014.4 |
| 20260902123800 | 94 | 287 | 6.0 | 10.0 | 0.00 | 0.00 | 0.00 | 40 | 1014.4 |
| 20260902123300 | 94 | 266 | 6.0 | 10.0 | 0.00 | 0.00 | 0.00 | 39 | 1014.6 |
| 20260902122800 | 94 | 243 | 5.0 | 9.0 | 0.00 | 0.00 | 0.00 | 41 | 1014.6 |
| 20260902122300 | 94 | 250 | 5.0 | 9.0 | 0.00 | 0.00 | 0.00 | 40 | 1014.6 |
| 20260902121800 | 94 | 233 | 3.0 | 10.0 | 0.00 | 0.00 | 0.00 | 39 | 1014.7 |
| 20260902121300 | 94 | 271 | 2.0 | 3.0 | 0.00 | 0.00 | 0.00 | 40 | 1014.8 |
| 20260902120800 | 94 | 283 | 5.0 | 9.0 | 0.00 | 0.00 | 0.00 | 39 | 1014.8 |
| 20260902120300 | 94 | 277 | 5.0 | 8.0 | 0.00 | 0.00 | 0.00 | 40 | 1015.0 |
| 20260902115800 | 94 | 310 | 5.0 | 9.0 | 0.00 | 0.00 | 0.00 | 42 | 1014.9 |
| 20260902115300 | 94 | 274 | 4.0 | 9.0 | 0.00 | 0.00 | 0.00 | 39 | 1015.0 |
| 20260902114800 | 94 | 289 | 2.0 | 8.0 | 0.00 | 0.00 | 0.00 | 40 | 1014.9 |
| 20260902114300 | 94 | 219 | 2.0 | 4.0 | 0.00 | 0.00 | 0.00 | 39 | 1015.1 |
| 20260902113800 | 93 | 266 | 4.0 | 8.0 | 0.00 | 0.00 | 0.00 | 39 | 1015.2 |
| 20260902113300 | 94 | 355 | 3.0 | 9.0 | 0.00 | 0.00 | 0.00 | 39 | 1015.2 |
| 20260902112800 | 94 | 344 | 2.0 | 5.0 | 0.00 | 0.00 | 0.00 | 42 | 1015.4 |
| 20260902112300 | 94 | 9 | 2.0 | 5.0 | 0.00 | 0.00 | 0.00 | 44 | 1015.4 |
| 20260902111800 | 94 | 186 | 2.0 | 3.0 | 0.00 | 0.00 | 0.00 | 38 | 1015.4 |
| 20260902111300 | 93 | 28 | 3.0 | 6.0 | 0.00 | 0.00 | 0.00 | 39 | 1015.5 |
| 20260902110800 | 93 | 35 | 3.0 | 7.0 | 0.00 | 0.00 | 0.00 | 39 | 1015.5 |
| 20260902110300 | 94 | 342 | 2.0 | 4.0 | 0.00 | 0.00 | 0.00 | 41 | 1015.5 |
| 20260902105800 | 93 | 318 | 2.0 | 4.0 | 0.00 | 0.00 | 0.00 | 40 | 1015.6 |
| 20260902105300 | 93 | 213 | 2.0 | 4.0 | 0.00 | 0.00 | 0.00 | 39 | 1015.6 |
| 20260902104800 | 93 | 344 | 2.0 | 3.0 | 0.00 | 0.00 | 0.00 | 40 | 1015.6 |
| 20260902104300 | 93 | 55 | 3.0 | 7.0 | 0.00 | 0.00 | 0.00 | 39 | 1015.6 |
| 20260902103800 | 92 | 48 | 4.0 | 8.0 | 0.00 | 0.00 | 0.00 | 40 | 1015.7 |
| 20260902103300 | 92 | 26 | 5.0 | 9.0 | 0.00 | 0.00 | 0.00 | 39 | 1015.8 |
| 20260902102800 | 92 | 341 | 4.0 | 10.0 | 0.00 | 0.00 | 0.00 | 39 | 1015.8 |
| 20260902102300 | 92 | 58 | 4.0 | 6.0 | 0.00 | 0.00 | 0.00 | 41 | 1015.9 |
| 20260902101800 | 92 | 106 | 5.0 | 9.0 | 0.00 | 0.00 | 0.00 | 42 | 1015.9 |
| 20260902101300 | 92 | 54 | 5.0 | 9.0 | 0.00 | 0.00 | 0.00 | 40 | 1015.9 |
| 20260902100800 | 92 | 34 | 5.0 | 10.0 | 0.00 | 0.00 | 0.00 | 44 | 1015.9 |
| 20260902100300 | 91 | 76 | 5.0 | 10.0 | 0.00 | 0.00 | 0.00 | 40 | 1016.1 |
| 20260902095800 | 91 | 110 | 5.0 | 8.0 | 0.00 | 0.00 | 0.00 | 42 | 1016.1 |
| 20260902095300 | 91 | 117 | 5.0 | 12.0 | 0.00 | 0.00 | 0.00 | 41 | 1016.2 |
| 20260902094800 | 91 | 142 | 5.0 | 7.0 | 0.00 | 0.00 | 0.00 | 40 | 1016.3 |
| 20260902094300 | 91 | 98 | 5.0 | 10.0 | 0.00 | 0.00 | 0.00 | 40 | 1016.4 |
| 20260902093800 | 91 | 61 | 4.0 | 9.0 | 0.00 | 0.00 | 0.00 | 44 | 1016.3 |
| 20260902093300 | 91 | 107 | 5.0 | 8.0 | 0.00 | 0.00 | 0.00 | 42 | 1016.3 |
| 20260902092800 | 90 | 55 | 5.0 | 12.0 | 0.00 | 0.00 | 0.00 | 42 | 1016.4 |
| 20260902092300 | 90 | 131 | 5.0 | 9.0 | 0.00 | 0.00 | 0.00 | 41 | 1016.4 |
| 20260902091800 | 90 | 56 | 8.0 | 13.0 | 0.00 | 0.00 | 0.00 | 43 | 1016.5 |
| 20260902091300 | 90 | 53 | 9.0 | 16.0 | 0.00 | 0.00 | 0.00 | 42 | 1016.4 |
| 20260902090800 | 90 | 46 | 9.0 | 14.0 | 0.00 | 0.00 | 0.00 | 42 | 1016.6 |
| 20260902090300 | 89 | 85 | 11.0 | 14.0 | 0.00 | 0.00 | 0.00 | 42 | 1016.6 |
| 20260902085800 | 89 | 55 | 10.0 | 18.0 | 0.00 | 0.00 | 0.00 | 42 | 1016.5 |
| 20260902085300 | 89 | 52 | 9.0 | 18.0 | 0.00 | 0.00 | 0.00 | 42 | 1016.5 |
| 20260902084800 | 89 | 342 | 10.0 | 15.0 | 0.00 | 0.00 | 0.00 | 42 | 1016.5 |
| 20260902084300 | 89 | 53 | 11.0 | 19.0 | 0.00 | 0.00 | 0.00 | 42 | 1016.6 |
| 20260902083800 | 89 | 63 | 10.0 | 16.0 | 0.00 | 0.00 | 0.00 | 42 | 1016.6 |
| 20260902083300 | 89 | 78 | 11.0 | 13.0 | 0.00 | 0.00 | 0.00 | 43 | 1016.6 |
| 20260902082800 | 88 | 53 | 11.0 | 16.0 | 0.00 | 0.00 | 0.00 | 42 | 1016.6 |
| 20260902082300 | 88 | 59 | 10.0 | 17.0 | 0.00 | 0.00 | 0.00 | 43 | 1016.6 |
| 20260902081800 | 88 | 86 | 10.0 | 16.0 | 0.00 | 0.00 | 0.00 | 44 | 1016.6 |
| 20260902081300 | 88 | 5 | 11.0 | 14.0 | 0.00 | 0.00 | 0.00 | 43 | 1016.6 |
| 20260902080827 | 87 | 68 | 12.0 | 14.0 | 0.00 | 0.00 | 0.00 | 44 | 1016.7 |
| 20260902080316 | 87 | 55 | 10.0 | 18.0 | 0.00 | 0.00 | 0.00 | 44 | 1016.7 |
| 20260902075800 | 87 | 65 | 10.0 | 18.0 | 0.00 | 0.00 | 0.00 | 44 | 1016.7 |
| 20260902075300 | 87 | 40 | 11.0 | 15.0 | 0.00 | 0.00 | 0.00 | 45 | 1016.7 |
| 20260902074800 | 87 | 38 | 11.0 | 15.0 | 0.00 | 0.00 | 0.00 | 44 | 1016.8 |
| 20260902074300 | 87 | 40 | 12.0 | 15.0 | 0.00 | 0.00 | 0.00 | 45 | 1016.7 |
| 20260902073804 | 86 | 56 | 12.0 | 18.0 | 0.00 | 0.00 | 0.00 | 45 | 1016.7 |
| 20260902073308 | 86 | 76 | 11.0 | 18.0 | 0.00 | 0.00 | 0.00 | 46 | 1016.7 |
| 20260902072801 | 86 | 74 | 10.0 | 16.0 | 0.00 | 0.00 | 0.00 | 45 | 1016.7 |
| 20260902072300 | 86 | 91 | 10.0 | 17.0 | 0.00 | 0.00 | 0.00 | 46 | 1016.6 |
| 20260902071801 | 85 | 66 | 11.0 | 19.0 | 0.00 | 0.00 | 0.00 | 47 | 1016.6 |
| 20260902071300 | 85 | 55 | 11.0 | 18.0 | 0.00 | 0.00 | 0.00 | 46 | 1016.6 |
| 20260902070800 | 85 | 39 | 11.0 | 14.0 | 0.00 | 0.00 | 0.00 | 47 | 1016.6 |
| 20260902070301 | 85 | 110 | 13.0 | 22.0 | 0.00 | 0.00 | 0.00 | 45 | 1016.7 |
| 20260902065801 | 85 | 63 | 14.0 | 19.0 | 0.00 | 0.00 | 0.00 | 46 | 1016.6 |
| 20260902065301 | 85 | 84 | 13.0 | 22.0 | 0.00 | 0.00 | 0.00 | 47 | 1016.6 |
| 20260902064801 | 84 | 88 | 11.0 | 19.0 | 0.00 | 0.00 | 0.00 | 47 | 1016.7 |
| 20260902064301 | 84 | 80 | 11.0 | 12.0 | 0.00 | 0.00 | 0.00 | 49 | 1016.6 |
| 20260902063801 | 84 | 92 | 12.0 | 18.0 | 0.00 | 0.00 | 0.00 | 48 | 1016.6 |
| 20260902063301 | 84 | 62 | 12.0 | 20.0 | 0.00 | 0.00 | 0.00 | 48 | 1016.6 |
| 20260902062801 | 84 | 111 | 13.0 | 20.0 | 0.00 | 0.00 | 0.00 | 48 | 1016.6 |
| 20260902062301 | 84 | 92 | 13.0 | 18.0 | 0.00 | 0.00 | 0.00 | 48 | 1016.6 |
| 20260902061803 | 83 | 79 | 13.0 | 19.0 | 0.00 | 0.00 | 0.00 | 49 | 1016.5 |
| 20260902061301 | 83 | 82 | 13.0 | 20.0 | 0.00 | 0.00 | 0.00 | 48 | 1016.6 |
| 20260902060801 | 83 | 92 | 12.0 | 20.0 | 0.00 | 0.00 | 0.00 | 49 | 1016.6 |
| 20260902060301 | 83 | 85 | 10.0 | 19.0 | 0.00 | 0.00 | 0.00 | 48 | 1016.5 |
| 20260902055801 | 83 | 117 | 8.0 | 11.0 | 0.00 | 0.00 | 0.00 | 49 | 1016.6 |
| 20260902055301 | 83 | 49 | 9.0 | 15.0 | 0.00 | 0.00 | 0.00 | 50 | 1016.5 |
| 20260902054801 | 83 | 88 | 8.0 | 17.0 | 0.00 | 0.00 | 0.00 | 49 | 1016.6 |
| 20260902054301 | 82 | 61 | 6.0 | 10.0 | 0.00 | 0.00 | 0.00 | 50 | 1016.4 |
| 20260902053801 | 82 | 113 | 7.0 | 13.0 | 0.00 | 0.00 | 0.00 | 51 | 1016.6 |
| 20260902053301 | 82 | 66 | 5.0 | 14.0 | 0.00 | 0.00 | 0.00 | 51 | 1016.6 |
| 20260902052801 | 82 | 96 | 2.0 | 7.0 | 0.00 | 0.00 | 0.00 | 55 | 1016.5 |
| 20260902052301 | 81 | 77 | 2.0 | 3.0 | 0.00 | 0.00 | 0.00 | 55 | 1016.5 |
| 20260902051801 | 81 | 107 | 2.0 | 7.0 | 0.00 | 0.00 | 0.00 | 54 | 1016.5 |
| 20260902051301 | 81 | 120 | 3.0 | 6.0 | 0.00 | 0.00 | 0.00 | 53 | 1016.5 |
| 20260902050801 | 81 | 115 | 4.0 | 10.0 | 0.00 | 0.00 | 0.00 | 53 | 1016.6 |
| 20260902050303 | 82 | 94 | 4.0 | 9.0 | 0.00 | 0.00 | 0.00 | 53 | 1016.6 |
| 20260902045801 | 82 | 150 | 5.0 | 10.0 | 0.00 | 0.00 | 0.00 | 52 | 1016.6 |
| 20260902045301 | 81 | 92 | 5.0 | 7.0 | 0.00 | 0.00 | 0.00 | 53 | 1016.6 |
| 20260902044801 | 82 | 87 | 5.0 | 10.0 | 0.00 | 0.00 | 0.00 | 52 | 1016.5 |
| 20260902044301 | 82 | 64 | 5.0 | 8.0 | 0.00 | 0.00 | 0.00 | 53 | 1016.5 |
| 20260902043801 | 81 | 93 | 5.0 | 9.0 | 0.00 | 0.00 | 0.00 | 52 | 1016.4 |
| 20260902043301 | 81 | 100 | 3.0 | 8.0 | 0.00 | 0.00 | 0.00 | 54 | 1016.4 |
| 20260902042801 | 80 | 85 | 3.0 | 4.0 | 0.00 | 0.00 | 0.00 | 55 | 1016.4 |
| 20260902042301 | 81 | 69 | 3.0 | 6.0 | 0.00 | 0.00 | 0.00 | 55 | 1016.3 |
| 20260902041801 | 81 | 111 | 4.0 | 6.0 | 0.00 | 0.00 | 0.00 | 55 | 1016.3 |
| 20260902041301 | 81 | 51 | 4.0 | 7.0 | 0.00 | 0.00 | 0.00 | 54 | 1016.3 |
| 20260902040801 | 81 | 111 | 3.0 | 6.0 | 0.00 | 0.00 | 0.00 | 56 | 1016.2 |
| 20260902040301 | 81 | 43 | 4.0 | 6.0 | 0.00 | 0.00 | 0.00 | 55 | 1016.1 |
| 20260902035801 | 80 | 58 | 3.0 | 10.0 | 0.00 | 0.00 | 0.00 | 55 | 1016.1 |
| 20260902035301 | 80 | 94 | 2.0 | 4.0 | 0.00 | 0.00 | 0.00 | 57 | 1016.1 |
| 20260902034801 | 80 | 78 | 2.0 | 4.0 | 0.00 | 0.00 | 0.00 | 57 | 1016.1 |
| 20260902034301 | 80 | 133 | 2.0 | 8.0 | 0.00 | 0.00 | 0.00 | 57 | 1016.1 |
| 20260902033801 | 80 | 90 | 3.0 | 4.0 | 0.00 | 0.00 | 0.00 | 58 | 1016.0 |
| 20260902033301 | 80 | 124 | 3.0 | 5.0 | 0.00 | 0.00 | 0.00 | 58 | 1016.0 |
| 20260902032801 | 80 | 132 | 3.0 | 6.0 | 0.00 | 0.00 | 0.00 | 58 | 1016.1 |
| 20260902032301 | 80 | 102 | 2.0 | 4.0 | 0.00 | 0.00 | 0.00 | 58 | 1016.0 |
| 20260902031801 | 80 | 142 | 2.0 | 4.0 | 0.00 | 0.00 | 0.00 | 58 | 1016.1 |
| 20260902031301 | 80 | 54 | 2.0 | 5.0 | 0.00 | 0.00 | 0.00 | 58 | 1016.0 |
| 20260902030801 | 81 | 173 | 3.0 | 5.0 | 0.00 | 0.00 | 0.00 | 58 | 1016.0 |
| 20260902030301 | 81 | 80 | 5.0 | 8.0 | 0.00 | 0.00 | 0.00 | 57 | 1016.0 |
| 20260902025801 | 81 | 89 | 4.0 | 9.0 | 0.00 | 0.00 | 0.00 | 57 | 1016.1 |
| 20260902025301 | 81 | 58 | 3.0 | 4.0 | 0.00 | 0.00 | 0.00 | 58 | 1016.1 |
| 20260902024801 | 81 | 114 | 2.0 | 6.0 | 0.00 | 0.00 | 0.00 | 59 | 1016.1 |
| 20260902024301 | 81 | 139 | 3.0 | 3.0 | 0.00 | 0.00 | 0.00 | 60 | 1016.1 |
| 20260902023801 | 81 | 92 | 5.0 | 5.0 | 0.00 | 0.00 | 0.00 | 58 | 1016.1 |
| 20260902023301 | 81 | 78 | 5.0 | 12.0 | 0.00 | 0.00 | 0.00 | 59 | 1016.1 |
| 20260902022801 | 81 | 56 | 6.0 | 10.0 | 0.00 | 0.00 | 0.00 | 60 | 1016.1 |
| 20260902022301 | 80 | 83 | 4.0 | 13.0 | 0.00 | 0.00 | 0.00 | 63 | 1016.0 |
| 20260902021801 | 78 | 82 | 2.0 | 5.0 | 0.00 | 0.00 | 0.00 | 69 | 1016.1 |
| 20260902021301 | 77 | 71 | 1.0 | 7.0 | 0.00 | 0.00 | 0.00 | 72 | 1016.1 |
| 20260902020801 | 77 | 170 | 2.0 | 2.0 | 0.00 | 0.00 | 0.00 | 76 | 1016.0 |
| 20260902020301 | 76 | 169 | 2.0 | 5.0 | 0.00 | 0.00 | 0.00 | 77 | 1016.1 |